Volver al catálogo

COSMOS 765

ActivoMilitarLEO
NORAD 8289·PAYLOAD·🇷🇺 Russia

Lanzado Sep 17, 1975 desde Plesetsk Cosmodrome

Loading…

Próximos Pases (próximas 24 horas)

TLE

ActualizadoSource: Space-Track

Época: Sep 14, 2026, 05:54 UTC

1 08289U 75086E   26257.24643170 -.00000004  00000-0  91557-4 0  9998
2 08289  74.0141 353.3344 0046321 267.8777 118.7574 12.38291137305111

Sigue COSMOS 765 en tiempo real con AllMySat

Download on the App Store